Home > Weather > Hoshiarpur > Past weeks

Flag for India Weather for the Past 2 Weeks in Hoshiarpur, Punjab, India

Now
104 °F

Clear.


Feels Like: 101 °F
Forecast: 78 / 100 °F
Wind: 3 mph from South

Location: Amritsar Airport

Current Time: May 2, 2016 at 1:57:25 PM

Latest Report: May 2, 2016 at 11:30 AM


Visibility: 2 mi

Pressure: 29.65 "Hg

Humidity: 15%

Dew Point: 48 °F

Location of HoshiarpurLocation

Historic Weather in Hoshiarpur — Graph

°F

Hoshiarpur Temperature Yesterday

Maximum temperature yesterday: 108 °F (at 3:30 PM)
Minimum temperature yesterday: 70 °F (at 5:30 AM)
Average temperature yesterday: 89 °F

High & Low Weather Summary for the Past Weeks

 TemperatureHumidityPressure
High108 °F (May 1, 3:30 PM)83% (Apr 18, 6:30 AM)29.86 "Hg (Apr 18, 6:30 AM)
Low61 °F (Apr 23, 5:30 AM)7% (Apr 29, 4:30 PM)29.56 "Hg (May 1, 4:30 PM)
Average84 °F31%29.72 "Hg
* Reported Apr 17 11:30 AM — May 2 11:30 AM, Hoshiarpur, Weather by CustomWeather, © 2016

Note: Actual official high and low records may vary slightly from our data, if they occured in-between our weather recording intervals... More about our weather records

Advertising

Hoshiarpur Weather History for the Previous 24 Hours

Scroll right to see more
 ConditionsComfort  
Time TempWeatherWind HumidityBarometerVisibility
11:30 AM
Mon, May 2
104 °FClear.3 mph15%29.65 "Hg1 mi
10:30 AM100 °FClear.2 mph18%29.65 "Hg1 mi
9:00 AM91 °FDuststorm.2 mph26%29.65 "Hg2 mi
8:30 AM90 °FDuststorm.3 mph26%29.62 "Hg2 mi
8:00 AM86 °FDuststorm.2 mph29%29.62 "Hg2 mi
7:30 AM84 °FHaze.2 mph35%29.59 "Hg2 mi
7:00 AM75 °FHaze.2 mph47%29.59 "Hg2 mi
3:30 AM77 °FHaze.No wind39%29.56 "Hg2 mi
3:00 AM75 °FHaze.No wind44%29.59 "Hg2 mi
2:30 AM77 °FHaze.2 mph42%29.59 "Hg2 mi
2:00 AM77 °FHaze.No wind44%29.59 "Hg2 mi
1:30 AM79 °FHaze.No wind39%29.59 "Hg2 mi
1:00 AM79 °FHaze.No wind42%29.59 "Hg2 mi
12:30 AM79 °FHaze.No wind42%29.59 "Hg2 mi
12:00 AM79 °FHaze.No wind42%29.62 "Hg2 mi
11:30 PM
Sun, May 1
79 °FHaze.No wind42%29.62 "Hg2 mi
11:00 PM81 °FDuststorm.No wind37%29.62 "Hg2 mi
10:30 PM81 °FDuststorm.No wind37%29.62 "Hg2 mi
10:00 PM84 °FDuststorm.No wind31%29.59 "Hg2 mi
9:30 PM84 °FDuststorm.No wind31%29.59 "Hg2 mi
9:00 PM90 °FDuststorm.No wind24%29.59 "Hg2 mi
8:30 PM90 °FDuststorm.No wind22%29.59 "Hg2 mi
8:00 PM93 °FDuststorm.3 mph20%29.56 "Hg2 mi
7:30 PM95 °FDuststorm.5 mph18%29.56 "Hg2 mi
7:00 PM97 °FDuststorm.5 mph16%29.56 "Hg2 mi
6:30 PM100 °FDuststorm.6 mph14%29.56 "Hg3 mi
6:00 PM104 °FDuststorm.8 mph11%29.56 "Hg3 mi
5:30 PM106 °FDuststorm.10 mph9%29.56 "Hg3 mi
5:00 PM106 °FDuststorm.13 mph9%29.56 "Hg3 mi
4:30 PM106 °FClear.13 mph9%29.56 "Hg4 mi
4:00 PM106 °FClear.13 mph9%29.59 "Hg4 mi
3:30 PM108 °FClear.13 mph10%29.59 "Hg4 mi
3:00 PM106 °FClear.10 mph11%29.59 "Hg4 mi
2:30 PM106 °FClear.8 mph11%29.62 "Hg4 mi
1:30 PM106 °FClear.8 mph11%29.62 "Hg4 mi
Weather by CustomWeather, © 2016

See weather overviewHow to use our weather pages